TimeEST,TemperatureF,Dew PointF,Humidity,Sea Level PressureIn,VisibilityMPH,Wind Direction,Wind SpeedMPH,Gust SpeedMPH,PrecipitationIn,Events,Conditions,WindDirDegrees,DateUTC
12:15 AM,48.7,22.1,35,30.12,10.0,WNW,8.1,16.1,N/A,,Clear,300,2013-12-18 05:15:00
12:35 AM,47.7,22.5,37,30.13,10.0,NW,5.8,-,N/A,,Clear,310,2013-12-18 05:35:00
12:55 AM,46.8,22.8,39,30.14,10.0,WNW,3.5,-,N/A,,Clear,300,2013-12-18 05:55:00
1:15 AM,46.2,23.0,40,30.14,10.0,NW,5.8,-,N/A,,Clear,310,2013-12-18 06:15:00
1:35 AM,45.5,23.4,42,30.14,10.0,WNW,5.8,-,N/A,,Clear,290,2013-12-18 06:35:00
1:55 AM,45.5,23.0,41,30.15,10.0,NW,6.9,-,N/A,,Clear,310,2013-12-18 06:55:00
2:15 AM,44.8,23.0,42,30.15,10.0,WNW,8.1,-,N/A,,Clear,300,2013-12-18 07:15:00
2:35 AM,44.1,22.8,43,30.15,10.0,West,5.8,-,N/A,,Clear,280,2013-12-18 07:35:00
2:55 AM,42.8,23.0,46,30.16,10.0,Calm,Calm,-,N/A,,Clear,0,2013-12-18 07:55:00
3:15 AM,41.9,22.5,46,30.16,10.0,Calm,Calm,-,N/A,,Clear,0,2013-12-18 08:15:00
3:35 AM,39.9,23.2,51,30.16,10.0,West,3.5,-,N/A,,Clear,270,2013-12-18 08:35:00
3:55 AM,41.7,21.2,44,30.17,10.0,WNW,4.6,-,N/A,,Clear,290,2013-12-18 08:55:00
4:15 AM,41.9,20.5,42,30.17,10.0,NW,4.6,-,N/A,,Clear,310,2013-12-18 09:15:00
4:35 AM,42.1,19.8,41,30.17,10.0,NW,9.2,-,N/A,,Clear,310,2013-12-18 09:35:00
4:55 AM,41.9,19.2,40,30.18,10.0,WNW,6.9,-,N/A,,Clear,300,2013-12-18 09:55:00
5:15 AM,41.4,18.9,41,30.18,10.0,NW,4.6,-,N/A,,Clear,320,2013-12-18 10:15:00
5:35 AM,41.2,18.1,40,30.19,10.0,NW,3.5,-,N/A,,Clear,320,2013-12-18 10:35:00
5:55 AM,41.0,17.2,38,30.19,10.0,WNW,4.6,-,N/A,,Clear,290,2013-12-18 10:55:00
6:15 AM,39.4,17.8,42,30.20,10.0,West,3.5,-,N/A,,Clear,260,2013-12-18 11:15:00
6:35 AM,39.4,16.5,40,30.21,10.0,West,4.6,-,N/A,,Clear,270,2013-12-18 11:35:00
6:55 AM,40.3,14.7,35,30.21,10.0,Calm,Calm,-,N/A,,Clear,0,2013-12-18 11:55:00
7:15 AM,36.1,19.2,50,30.22,10.0,Calm,Calm,-,N/A,,Clear,0,2013-12-18 12:15:00
7:35 AM,35.1,20.3,55,30.23,10.0,SW,3.5,-,N/A,,Clear,230,2013-12-18 12:35:00
7:55 AM,36.0,19.6,51,30.23,10.0,Calm,Calm,-,N/A,,Clear,0,2013-12-18 12:55:00
8:15 AM,34.0,22.3,62,30.24,10.0,South,3.5,-,N/A,,Clear,180,2013-12-18 13:15:00
8:35 AM,37.4,22.3,54,30.24,10.0,WSW,3.5,-,N/A,,Clear,240,2013-12-18 13:35:00
8:55 AM,40.5,18.7,42,30.25,10.0,Calm,Calm,-,N/A,,Clear,0,2013-12-18 13:55:00
9:15 AM,42.6,16.0,34,30.26,10.0,Calm,Calm,-,N/A,,Clear,0,2013-12-18 14:15:00
9:35 AM,45.3,15.6,30,30.27,10.0,West,4.6,-,N/A,,Clear,270,2013-12-18 14:35:00
9:55 AM,46.0,14.7,28,30.28,10.0,Calm,Calm,-,N/A,,Clear,0,2013-12-18 14:55:00
10:15 AM,47.3,11.7,24,30.28,10.0,Calm,Calm,-,N/A,,Clear,0,2013-12-18 15:15:00
10:35 AM,48.9,11.3,22,30.28,10.0,SW,3.5,-,N/A,,Clear,220,2013-12-18 15:35:00
10:55 AM,49.6,10.4,21,30.29,10.0,West,5.8,-,N/A,,Clear,270,2013-12-18 15:55:00
11:15 AM,50.0,8.1,18,30.29,10.0,Calm,Calm,-,N/A,,Clear,0,2013-12-18 16:15:00
11:35 AM,50.7,9.7,19,30.28,10.0,SW,4.6,-,N/A,,Clear,220,2013-12-18 16:35:00
11:55 AM,52.2,10.0,19,30.28,10.0,SW,6.9,-,N/A,,Clear,220,2013-12-18 16:55:00
12:15 PM,53.4,11.7,19,30.27,10.0,SW,5.8,-,N/A,,Clear,230,2013-12-18 17:15:00
12:35 PM,53.8,11.5,19,30.27,10.0,SW,9.2,-,N/A,,Clear,230,2013-12-18 17:35:00
12:55 PM,54.5,10.6,17,30.26,10.0,SW,6.9,-,N/A,,Clear,220,2013-12-18 17:55:00
1:15 PM,55.8,9.7,16,30.25,10.0,WSW,8.1,-,N/A,,Clear,240,2013-12-18 18:15:00
1:35 PM,56.3,9.1,15,30.24,10.0,SW,9.2,-,N/A,,Clear,230,2013-12-18 18:35:00
1:55 PM,57.2,9.7,15,30.24,10.0,SW,10.4,-,N/A,,Clear,230,2013-12-18 18:55:00
2:15 PM,57.4,8.6,14,30.24,10.0,WSW,3.5,-,N/A,,Clear,240,2013-12-18 19:15:00
2:35 PM,58.1,8.1,14,30.23,10.0,WSW,5.8,-,N/A,,Clear,240,2013-12-18 19:35:00
2:55 PM,58.8,6.8,13,30.23,10.0,West,3.5,-,N/A,,Clear,280,2013-12-18 19:55:00
3:15 PM,59.4,7.2,13,30.23,10.0,SW,8.1,-,N/A,,Clear,220,2013-12-18 20:15:00
3:35 PM,59.4,6.4,12,30.22,10.0,West,4.6,-,N/A,,Clear,260,2013-12-18 20:35:00
3:55 PM,59.2,6.6,12,30.22,10.0,Calm,Calm,-,N/A,,Clear,0,2013-12-18 20:55:00
4:15 PM,59.2,7.9,13,30.23,10.0,West,3.5,-,N/A,,Clear,270,2013-12-18 21:15:00
4:35 PM,58.6,8.6,14,30.23,10.0,WSW,3.5,-,N/A,,Clear,250,2013-12-18 21:35:00
4:55 PM,57.2,9.5,15,30.24,10.0,SW,3.5,-,N/A,,Clear,220,2013-12-18 21:55:00
5:15 PM,55.0,11.5,18,30.24,10.0,Calm,Calm,-,N/A,,Clear,0,2013-12-18 22:15:00
5:35 PM,50.4,18.0,28,30.24,10.0,Calm,Calm,-,N/A,,Clear,0,2013-12-18 22:35:00
5:55 PM,51.1,16.0,25,30.25,10.0,Calm,Calm,-,N/A,,Clear,0,2013-12-18 22:55:00
6:15 PM,53.2,10.0,18,30.25,10.0,West,4.6,-,N/A,,Clear,280,2013-12-18 23:15:00
6:35 PM,50.2,15.6,25,30.25,10.0,West,3.5,-,N/A,,Clear,270,2013-12-18 23:35:00
6:55 PM,46.2,16.5,31,30.25,10.0,Calm,Calm,-,N/A,,Clear,0,2013-12-18 23:55:00
7:15 PM,44.2,17.6,34,30.26,10.0,South,3.5,-,N/A,,Clear,180,2013-12-19 00:15:00
7:35 PM,45.1,17.6,33,30.26,10.0,Calm,Calm,-,N/A,,Clear,0,2013-12-19 00:35:00
7:55 PM,43.9,19.0,37,30.26,10.0,Calm,Calm,-,N/A,,Clear,0,2013-12-19 00:55:00
8:15 PM,42.4,18.9,39,30.27,10.0,Calm,Calm,-,N/A,,Clear,0,2013-12-19 01:15:00
8:35 PM,41.4,19.9,42,30.27,10.0,Calm,Calm,-,N/A,,Clear,0,2013-12-19 01:35:00
8:55 PM,41.9,16.7,36,30.28,10.0,Calm,Calm,-,N/A,,Clear,0,2013-12-19 01:55:00
9:15 PM,41.9,18.7,39,30.28,10.0,Calm,Calm,-,N/A,,Clear,0,2013-12-19 02:15:00
9:35 PM,41.0,18.9,41,30.28,10.0,Calm,Calm,-,N/A,,Clear,0,2013-12-19 02:35:00
9:55 PM,41.0,19.0,41,30.28,10.0,Calm,Calm,-,N/A,,Clear,0,2013-12-19 02:55:00
10:15 PM,38.8,21.4,50,30.28,10.0,Calm,Calm,-,N/A,,Clear,0,2013-12-19 03:15:00
10:35 PM,38.1,22.3,53,30.28,10.0,North,4.6,-,N/A,,Clear,350,2013-12-19 03:35:00
10:55 PM,38.1,21.0,50,30.29,10.0,NNW,3.5,-,N/A,,Clear,330,2013-12-19 03:55:00
11:15 PM,38.5,21.7,51,30.29,10.0,Calm,Calm,-,N/A,,Clear,0,2013-12-19 04:15:00
11:35 PM,36.5,22.8,58,30.29,10.0,Calm,Calm,-,N/A,,Clear,0,2013-12-19 04:35:00
11:55 PM,38.5,20.5,48,30.29,10.0,Calm,Calm,-,N/A,,Clear,0,2013-12-19 04:55:00